(3200) Phaethon (2000)

Japanese version
Home page
Updated on October 20, 2003

---------------------------------------------------------------------

* Profile

* Orbital Elements

   The following improved orbital elements by Kenji Muraoka, are 
  from 116 observations 1983 to 1996, perturbations by 9 Plantes,
  Moon and 5 minor planets were taken into account. 
   The mean residual is +/- 0.91 arc seconds.

      Epoch  =  2000 Dec.  2.0  TT
          T  =  2000 Nov. 12.83998  TT
       Peri. =  321.96453
       Node  =  265.44612    (2000.0)
       Incl. =   22.16482
          q  =    0.1395970 AU
          e  =    0.8901855

* Finding Charts

* Magnitudes Graph

        H = 14.3  G = 0.15

---------------------------------------------------------------------

The orbital elements are calculated by Kenji Muraoka.
The charts are made with StellaNavigator Ver.2.0 for Windows (AstroArts / ASCII).
The magnitudes graphs are made with Comet for Windows.

---------------------------------------------------------------------

Copyright(C) Seiichi Yoshida (comet@aerith.net). All rights reserved.